| time (UTC) | temp F | wind direction | speed MPH | gust MPH | rain 1hr in | rain 24hr in | rain mn in | humidity % | barometer mb |
| 20260831131501 | 78 | 241 | 3.0 | 10.0 | 0.00 | 0.00 | 0.00 | 40 | 1018.3 |
| 20260831130055 | 76 | 275 | 1.0 | 8.0 | 0.00 | 0.00 | 0.00 | 42 | 1018.2 |
| 20260831124551 | 76 | 210 | 1.0 | 10.0 | 0.00 | 0.00 | 0.00 | 42 | 1018.1 |
| 20260831123046 | 74 | 193 | 4.0 | 9.0 | 0.00 | 0.00 | 0.00 | 44 | 1018.2 |
| 20260831121545 | 73 | 217 | 2.0 | 6.0 | 0.00 | 0.00 | 0.00 | 45 | 1017.9 |
| 20260831120042 | 72 | 144 | 2.0 | 6.0 | 0.00 | 0.00 | 0.00 | 46 | 1017.9 |
| 20260831114535 | 72 | 146 | 1.0 | 5.0 | 0.00 | 0.00 | 0.00 | 46 | 1017.9 |
| 20260831113033 | 72 | 166 | 1.0 | 4.0 | 0.00 | 0.00 | 0.00 | 46 | 1017.7 |
| 20260831111529 | 0 | 0.0 | 0.0 | 0.00 | 0.00 | 0.00 | 1017.6 | ||
| 20260831110024 | 0 | 0.0 | 0.0 | 0.00 | 0.00 | 0.00 | 1017.4 | ||
| 20260831104529 | 0 | 0.0 | 0.0 | 0.00 | 0.00 | 0.00 | 1017.1 | ||
| 20260831103022 | 70 | 4 | 0.0 | 0.0 | 0.00 | 0.00 | 0.00 | 48 | 1017.1 |
| 20260831101516 | 69 | 273 | 0.0 | 0.0 | 0.00 | 0.00 | 0.00 | 47 | 1016.9 |
| 20260831100014 | 69 | 273 | 0.0 | 0.0 | 0.00 | 0.00 | 0.00 | 47 | 1017.1 |
| 20260831094520 | 70 | 359 | 0.0 | 0.0 | 0.00 | 0.00 | 0.00 | 47 | 1017.1 |
| 20260831093015 | 70 | 351 | 0.0 | 0.0 | 0.00 | 0.00 | 0.00 | 48 | 1017.1 |
| 20260831091518 | 69 | 18 | 0.0 | 0.0 | 0.00 | 0.00 | 0.00 | 47 | 1017.0 |
| 20260831090004 | 69 | 36 | 0.0 | 0.0 | 0.00 | 0.00 | 0.00 | 47 | 1016.9 |
| 20260831084511 | 69 | 35 | 0.0 | 0.0 | 0.00 | 0.00 | 0.00 | 47 | 1017.0 |
| 20260831083001 | 69 | 13 | 0.0 | 0.0 | 0.00 | 0.00 | 0.00 | 48 | 1016.8 |
| 20260831081558 | 69 | 141 | 0.0 | 0.0 | 0.00 | 0.00 | 0.00 | 47 | 1016.7 |
| 20260831080117 | 69 | 146 | 0.0 | 0.0 | 0.00 | 0.00 | 0.00 | 46 | 1016.5 |
| 20260831074552 | 69 | 146 | 0.0 | 0.0 | 0.00 | 0.00 | 0.00 | 46 | 1016.5 |
| 20260831073048 | 69 | 146 | 0.0 | 0.0 | 0.00 | 0.00 | 0.00 | 45 | 1016.6 |
| 20260831071548 | 69 | 146 | 0.0 | 0.0 | 0.00 | 0.00 | 0.00 | 44 | 1016.6 |
| 20260831070041 | 70 | 145 | 0.0 | 0.0 | 0.00 | 0.00 | 0.00 | 44 | 1016.7 |
| 20260831064548 | 70 | 275 | 0.0 | 0.0 | 0.00 | 0.00 | 0.00 | 44 | 1016.7 |
| 20260831063053 | 70 | 274 | 0.0 | 0.0 | 0.00 | 0.00 | 0.00 | 44 | 1016.8 |
| 20260831061535 | 70 | 274 | 0.0 | 0.0 | 0.00 | 0.00 | 0.00 | 44 | 1016.9 |
| 20260831060032 | 70 | 275 | 0.0 | 0.0 | 0.00 | 0.00 | 0.00 | 44 | 1016.9 |
| 20260831054528 | 70 | 274 | 0.0 | 0.0 | 0.00 | 0.00 | 0.00 | 42 | 1017.0 |
| 20260831053026 | 71 | 275 | 0.0 | 0.0 | 0.00 | 0.00 | 0.00 | 42 | 1017.0 |
| 20260831051532 | 71 | 275 | 0.0 | 0.0 | 0.00 | 0.00 | 0.00 | 41 | 1017.1 |
| 20260831050019 | 72 | 275 | 0.0 | 0.0 | 0.00 | 0.00 | 0.00 | 40 | 1017.2 |
| 20260831044517 | 72 | 274 | 0.0 | 0.0 | 0.00 | 0.00 | 0.00 | 40 | 1017.2 |
| 20260831043013 | 72 | 275 | 0.0 | 0.0 | 0.00 | 0.00 | 0.00 | 39 | 1017.3 |
| 20260831041512 | 72 | 275 | 0.0 | 0.0 | 0.00 | 0.00 | 0.00 | 40 | 1017.5 |
| 20260831040014 | 72 | 275 | 0.0 | 0.0 | 0.00 | 0.00 | 0.00 | 45 | 1017.4 |
| 20260831034506 | 73 | 275 | 0.0 | 0.0 | 0.00 | 0.00 | 0.00 | 47 | 1017.5 |
| 20260831033002 | 73 | 274 | 0.0 | 0.0 | 0.00 | 0.00 | 0.00 | 47 | 1017.4 |
| 20260831031600 | 73 | 275 | 0.0 | 0.0 | 0.00 | 0.00 | 0.00 | 47 | 1017.4 |
| 20260831030057 | 73 | 275 | 0.0 | 0.0 | 0.00 | 0.00 | 0.00 | 48 | 1017.6 |
| 20260831024600 | 73 | 275 | 0.0 | 0.0 | 0.00 | 0.00 | 0.00 | 55 | 1017.9 |
| 20260831023054 | 74 | 274 | 0.0 | 0.0 | 0.00 | 0.00 | 0.00 | 60 | 1017.9 |
| 20260831021552 | 74 | 276 | 0.0 | 0.0 | 0.00 | 0.00 | 0.00 | 60 | 1018.0 |
| 20260831020050 | 74 | 172 | 0.0 | 0.0 | 0.00 | 0.00 | 0.00 | 61 | 1017.9 |
| 20260831014548 | 74 | 174 | 0.0 | 0.0 | 0.00 | 0.00 | 0.00 | 61 | 1018.1 |
| 20260831013047 | 74 | 174 | 0.0 | 0.0 | 0.00 | 0.00 | 0.00 | 62 | 1018.0 |
| 20260831011545 | 75 | 174 | 0.0 | 0.0 | 0.00 | 0.00 | 0.00 | 62 | 1017.9 |
| 20260831010040 | 76 | 170 | 0.0 | 1.0 | 0.00 | 0.00 | 0.00 | 61 | 1017.7 |
| 20260831004540 | 76 | 136 | 0.0 | 2.0 | 0.00 | 0.00 | 0.00 | 60 | 1017.6 |
| 20260831003137 | 76 | 103 | 0.0 | 3.0 | 0.00 | 0.00 | 0.00 | 60 | 1017.4 |
| 20260831001534 | 76 | 134 | 1.0 | 4.0 | 0.00 | 0.00 | 0.00 | 60 | 1017.4 |
| 20260831000034 | 77 | 88 | 3.0 | 6.0 | 0.00 | 0.00 | 0.00 | 60 | 1017.2 |
| 20260830234631 | 78 | 122 | 1.0 | 3.0 | 0.00 | 0.00 | 0.00 | 60 | 1017.2 |
| 20260830233028 | 79 | 7 | 2.0 | 7.0 | 0.00 | 0.00 | 0.00 | 58 | 1017.4 |
| 20260830231527 | 83 | 317 | 3.0 | 9.0 | 0.00 | 0.00 | 0.00 | 55 | 1017.5 |
| 20260830230025 | 84 | 197 | 1.0 | 4.0 | 0.00 | 0.00 | 0.00 | 54 | 1017.0 |
| 20260830224522 | 84 | 165 | 1.0 | 3.0 | 0.00 | 0.00 | 0.00 | 54 | 1017.0 |
| 20260830223025 | 84 | 137 | 1.0 | 5.0 | 0.00 | 0.00 | 0.00 | 54 | 1017.1 |
| 20260830221518 | 85 | 173 | 2.0 | 6.0 | 0.00 | 0.00 | 0.00 | 52 | 1016.8 |
| 20260830220018 | 87 | 174 | 4.0 | 7.0 | 0.00 | 0.00 | 0.00 | 50 | 1016.6 |
| 20260830214615 | 85 | 282 | 3.0 | 6.0 | 0.00 | 0.00 | 0.00 | 52 | 1016.5 |
| 20260830213013 | 87 | 209 | 4.0 | 9.0 | 0.00 | 0.00 | 0.00 | 49 | 1016.5 |
| 20260830211512 | 87 | 224 | 2.0 | 4.0 | 0.00 | 0.00 | 0.00 | 50 | 1016.5 |
| 20260830210010 | 87 | 266 | 2.0 | 5.0 | 0.00 | 0.00 | 0.00 | 50 | 1016.4 |
| 20260830204508 | 88 | 165 | 4.0 | 8.0 | 0.00 | 0.00 | 0.00 | 46 | 1016.5 |
| 20260830203006 | 88 | 217 | 2.0 | 8.0 | 0.00 | 0.00 | 0.00 | 48 | 1016.7 |
| 20260830201504 | 87 | 261 | 3.0 | 6.0 | 0.00 | 0.00 | 0.00 | 49 | 1016.8 |
| 20260830200000 | 87 | 231 | 3.0 | 7.0 | 0.00 | 0.00 | 0.00 | 49 | 1017.0 |
| 20260830194602 | 87 | 193 | 3.0 | 7.0 | 0.00 | 0.00 | 0.00 | 48 | 1017.0 |
| 20260830193056 | 88 | 193 | 3.0 | 12.0 | 0.00 | 0.00 | 0.00 | 46 | 1017.2 |
| 20260830191551 | 87 | 125 | 4.0 | 12.0 | 0.00 | 0.00 | 0.00 | 47 | 1017.4 |
| 20260830190046 | 86 | 250 | 4.0 | 10.0 | 0.00 | 0.00 | 0.00 | 47 | 1017.7 |
| 20260830184544 | 87 | 233 | 5.0 | 10.0 | 0.00 | 0.00 | 0.00 | 48 | 1018.0 |
| 20260830183044 | 86 | 149 | 4.0 | 10.0 | 0.00 | 0.00 | 0.00 | 47 | 1018.2 |
| 20260830181536 | 86 | 238 | 5.0 | 10.0 | 0.00 | 0.00 | 0.00 | 48 | 1018.5 |
| 20260830180034 | 85 | 236 | 4.0 | 10.0 | 0.00 | 0.00 | 0.00 | 47 | 1018.9 |
| 20260830174528 | 85 | 230 | 6.0 | 10.0 | 0.00 | 0.00 | 0.00 | 23 | 1019.2 |
| 20260830173020 | 84 | 167 | 4.0 | 10.0 | 0.00 | 0.00 | 0.00 | 25 | 1019.5 |
| 20260830171520 | 83 | 243 | 5.0 | 10.0 | 0.00 | 0.00 | 0.00 | 26 | 1019.6 |
| 20260830170011 | 81 | 269 | 3.0 | 9.0 | 0.00 | 0.00 | 0.00 | 31 | 1020.0 |
| 20260830164507 | 81 | 295 | 4.0 | 7.0 | 0.00 | 0.00 | 0.00 | 31 | 1020.4 |
| 20260830163005 | 79 | 251 | 6.0 | 12.0 | 0.00 | 0.00 | 0.00 | 32 | 1020.5 |
| 20260830161559 | 79 | 246 | 3.0 | 9.0 | 0.00 | 0.00 | 0.00 | 34 | 1020.7 |
| 20260830160105 | 78 | 217 | 3.0 | 6.0 | 0.00 | 0.00 | 0.00 | 34 | 1020.6 |
| 20260830154554 | 76 | 262 | 4.0 | 9.0 | 0.00 | 0.00 | 0.00 | 36 | 1020.9 |
| 20260830153053 | 77 | 307 | 2.0 | 10.0 | 0.00 | 0.00 | 0.00 | 36 | 1020.8 |
| 20260830151551 | 78 | 220 | 4.0 | 10.0 | 0.00 | 0.00 | 0.00 | 34 | 1020.7 |
| 20260830150046 | 77 | 239 | 6.0 | 12.0 | 0.00 | 0.00 | 0.00 | 34 | 1020.6 |
| 20260830144547 | 76 | 219 | 5.0 | 14.0 | 0.00 | 0.00 | 0.00 | 36 | 1020.6 |
| 20260830143042 | 75 | 273 | 2.0 | 9.0 | 0.00 | 0.00 | 0.00 | 40 | 1020.6 |
| 20260830141537 | 75 | 243 | 3.0 | 8.0 | 0.00 | 0.00 | 0.00 | 40 | 1020.8 |
| 20260830140030 | 74 | 186 | 3.0 | 7.0 | 0.00 | 0.00 | 0.00 | 41 | 1020.6 |
| 20260830134534 | 74 | 238 | 1.0 | 5.0 | 0.00 | 0.00 | 0.00 | 42 | 1020.9 |
| 20260830133023 | 73 | 226 | 2.0 | 7.0 | 0.00 | 0.00 | 0.00 | 43 | 1021.1 |